Location: Brede
(50.9167°N, 0.6000°E)
Time: 12:08:43
(UTC+00:00)

Vanguard 1 - All Passes

Search period start: 30 November 2020 00:00
Search period end: 10 December 2020 00:00
Orbit: 650 x 3833 km, 34.2° (Epoch: 29 November)

Date Brightness Start Highest point End Pass type
(mag) Time Alt. Az. Time Alt. Az. Time Alt. Az.
30 Nov - 04:23:10 10° S 04:26:47 15° SSE 04:31:25 10° ESE visible
30 Nov - 06:39:26 10° SW 06:45:54 29° S 06:56:14 10° ESE visible
30 Nov - 08:58:22 10° WSW 09:06:37 27° SSW 09:19:15 10° SE daylight
30 Nov - 11:21:39 10° WSW 11:28:13 14° SSW 11:36:12 10° S daylight
01 Dec - 04:42:51 10° SSW 04:47:04 18° SSE 04:52:49 10° ESE visible
01 Dec - 06:59:57 10° SW 07:06:30 28° S 07:16:54 10° SE visible
01 Dec - 09:19:29 10° WSW 09:27:21 23° SSW 09:38:50 10° SSE daylight
02 Dec - 05:02:53 10° SSW 05:07:27 21° SSE 05:13:55 10° ESE visible
02 Dec - 07:20:35 10° WSW 07:27:08 27° S 07:37:21 10° SE daylight
02 Dec - 09:40:59 10° WSW 09:48:05 19° SSW 09:57:49 10° SSE daylight
03 Dec - 05:23:07 10° SW 05:27:54 22° SSE 05:34:50 10° ESE visible
03 Dec - 07:41:23 10° WSW 07:47:49 24° S 07:57:33 10° SE daylight
03 Dec - 10:03:13 10° SW 10:08:49 14° SSW 10:15:49 10° S daylight
04 Dec - 03:27:59 10° SSE 03:29:35 11° SSE 03:31:20 10° SE visible
04 Dec - 05:43:31 10° SW 05:48:25 23° S 05:55:34 10° SE visible
04 Dec - 08:02:23 10° WSW 08:08:30 21° SSW 08:17:23 10° SSE daylight
05 Dec - 03:47:14 10° S 03:49:55 14° SSE 03:53:06 10° SE visible
05 Dec - 06:04:04 10° SW 06:08:59 22° S 06:16:07 10° SE visible
05 Dec - 08:23:44 10° SW 08:29:14 17° SSW 08:36:41 10° SSE daylight
06 Dec - 04:07:09 10° SSW 04:10:18 16° SSE 04:14:14 10° SE visible
06 Dec - 06:24:47 10° SW 06:29:36 20° S 06:36:26 10° SE visible
06 Dec - 08:45:48 10° SW 08:49:57 13° SSW 08:55:04 10° S daylight
07 Dec - 04:27:22 10° SSW 04:30:46 17° SSE 04:35:05 10° SE visible
07 Dec - 06:45:44 10° SW 06:50:15 18° S 06:56:24 10° SSE visible
08 Dec - 04:47:48 10° SW 04:51:16 17° S 04:55:43 10° SE visible
08 Dec - 07:07:01 10° SW 07:10:54 15° SSW 07:15:53 10° SSE visible
09 Dec - 02:52:04 10° S 02:52:53 10° SSE 02:53:43 10° SSE visible
09 Dec - 05:08:27 10° SW 05:11:49 16° S 05:16:05 10° SE visible
09 Dec - 07:29:13 10° SW 07:31:35 11° SSW 07:34:16 10° S daylight
